SCP
0 0 0 0 0 0 0 0 0 0 0 0 0 0 0 0 0 0 0 0 0 0 0 0 0 0 0 0 0 0 0 0 0 0 0 0 0 0 0 0 0 0 0 0 0 0 0 0 0
0 0 0 0 0 0 0 0 0 0 0 0 0 0 0 0 0 0 0 0 0 0 0 0 0 0 0 0 0 0 0 0 0 0 0 0 0 0 0 0 0 0 0 0 0 0 0 0 0
0 0 0 0 0 0 0 0 0 0 0 0 0 0 0 0 0 0 0 0 0 0 0 0 0 0 0 0 0 0 0 0 0 0 0 0 0 0 0 0 0 0 0 0 0 0 0 0 0
0 0 0 0 0 0 0 0 0 0 0 0 0 0 0 0 0 0 0 0 0 0 0 0 0 0 0 0 0 0 0 0 0 0 0 0 0 0 0 0 0 0 0 0 0 0 0 0 0
0 0 0 0 0 0 0 0 0 0 0 0 0 0 0 0 0 0 0 0 0 0 0 0 0 0 0 0 0 0 0 0 0 0 0 0 0 0 0 0 0 0 0 0 0 0 0 0 0
0 0 0 0 0 0 0 0 0 0 0 0 0 0 0 0 0 0 0 0 0 0 0 0 0 0 0 0 0 0 0 0 0 0 0 0 0 0 0 0 0 0 0 0 0 0 0 0 0
0 0 0 0 0 0 0 0 0 0 0 0 0 0 0 0 0 0 0 0 0 0 0 0 0 0 0 0 0 0 0 0 0 0 0 0 0 0 0 0 0 0 0 0 0 0 0 0 0
0 0 0 0 0 0 0 0 0 0 0 0 0 0 0 0 0 0 0 0 0 0 0 0 0 0 0 0 0 0 0 0 0 0 0 0 0 0 0 0 0 0 0 0 0 0 0 0 0
0 0 0 0 0 0 0 0 0 0 0 0 0 0 0 0 0 0 0 0 0 0 0 0 0 0 0 0 0 0 0 0 0 0 0 0 0 0 0 0 0 0 0 0 0 0 0 0 0
0 0 0 0 0 0 0 0 0 0 0 0 0 0 0 0 0 0 0 0 0 0 0 0 0 0 0 0 0 0 0 0 0 0 0 0 0 0 0 0 0 0 0 0 0 0 0 0 0
0 0 0 0 0 0 0 0 0 0 0 0 0 0 0 0 0 0 0 0 0 0 0 0 0 0 0 0 0 0 0 0 0 0 0 0 0 0 0 0 0 0 0 0 0 0 0 0 0
0 0 0 0 0 0 0 0 0 0 0 0 0 0 0 0 0 0 0 0 0 0 0 0 0 0 0 0 0 0 0 0 0 0 0 0 0 0 0 0 0 0 0 0 0 0 0 0 0
0 0 0 0 0 0 0 0 0 0 0 0 0 0 0 0 0 0 0 0 0 0 0 0 0 0 0 0 0 0 0 0 0 0 0 0 0 0 0 0 0 0 0 0 0 0 0 0 0
0 0 0 0 0 0 0 0 0 0 0 0 0 0 0 0 0 0 0 0 0 0 0 0 0 0 0 0 0 0 0 0 0 0 0 0 0 0 0 0 0 0 0 0 0 0 0 0 0
0 0 0 0 0 0 0 0 0 0 0 0 0 0 0 0 0 0 0 0 0 0 0 0 0 0 0 0 0 0 0 0 0 0 0 0 0 0 0 0 0 0 0 0 0 0 0 0 0
0 0 0 0 0 0 0 0 0 0 0 0 0 0 0 0 0 0 0 0 0 0 0 0 0 0 0 0 0 0 0 0 0 0 0 0 0 0 0 0 0 0 0 0 0 0 0 0 0
0 0 0 0 0 0 0 0 0 0 0 0 0 0 0 0 0 0 0 0 0 0 0 0 0 0 0 0 0 0 0 0 0 0 0 0 0 0 0 0 0 0 0 0 0 0 0 0 0
0 0 0 0 0 0 0 0 0 0 0 0 0 0 0 0 0 0 0 0 0 0 0 0 0 0 0 0 0 0 0 0 0 0 0 0 0 0 0 0 0 0 0 0 0 0 0 0 0
0 0 0 0 0 0 0 0 0 0 0 0 0 0 0 0 0 0 0 0 0 0 0 0 0 0 0 0 0 0 0 0 0 0 0 0 0 0 0 0 0 0 0 0 0 0 0 0 0
0 0 0 0 0 0 0 0 0 0 0 0 0 0 0 0 0 0 0 0 0 0 0 0 0 0 0 0 0 0 0 0 0 0 0 0 0 0 0 0 0 0 0 0 0 0 0 0 0
0 0 0 0 0 0 0 0 0 0 0 0 0 0 0 0 0 0 0 0 0 0 0 0 0 0 0 0 0 0 0 0 0 0 0 0 0 0 0 0 0 0 0 0 0 0 0 0 0
0 0 0 0 0 0 0 0 0 0 0 0 0 0 0 0 0 0 0 0 0 0 0 0 0 0 0 0 0 0 0 0 0 0 0 0 0 0 0 0 0 0 0 0 0 0 0 0 0
0 0 0 0 0 0 0 0 0 0 0 0 0 0 0 0 0 0 0 0 0 0 0 0 0 0 0 0 0 0 0 0 0 0 0 0 0 0 0 0 0 0 0 0 0 0 0 0 0
0 0 0 0 0 0 0 0 0 0 0 0 0 0 0 0 0 0 0 0 0 0 0 0 0 0 0 0 0 0 0 0 0 0 0 0 0 0 0 0 0 0 0 0 0 0 0 0 0
0 0 0 0 0 0 0 0 0 0 0 0 0 0 0 0 0 0 0 0 0 0 0 0 0 0 0 0 0 0 0 0 0 0 0 0 0 0 0 0 0 0 0 0 0 0 0 0 0
0 0 0 0 0 0 0 0 0 0 0 0 0 0 0 0 0 0 0 0 0 0 0 0 0 0 0 0 0 0 0 0 0 0 0 0 0 0 0 0 0 0 0 0 0 0 0 0 0
0 0 0 0 0 0 0 0 0 0 0 0 0 0 0 0 0 0 0 0 0 0 0 0 0 0 0 0 0 0 0 0 0 0 0 0 0 0 0 0 0 0 0 0 0 0 0 0 0
0 0 0 0 0 0 0 0 0 0 0 0 0 0 0 0 0 0 0 0 0 0 0 0 0 0 0 0 0 0 0 0 0 0 0 0 0 0 0 0 0 0 0 0 -0 -0 -0 0 0
0 0 0 0 0 0 0 0 0 0 0 0 0 0 0 0 0 0 0 0 0 0 0 0 0 0 0 0 0 0 0 0 0 0 0 0 0 0 0 0 0 0 0 0 0 0 0 0 0
0 0 0 0 0 0 0 0 0 0 0 0 0 0 0 0 0 0 0 0 0 0 0 0 0 0 0 0 0 0 0 0 0 0 0 0 0 0 0 0 0 0 0 0 0 0 0 0 0
Wind_Speed
5 4 4 6 11 12 6 4 2 4 5 2 3 7 8 7 6 7 1 9 12 12 14 17 25 25 26 26 26 26 27 27 27 27 27 27 27 27 27 27 27 27 26 26 26 25 25 25 25
3 5 8 9 10 7 4 4 4 3 6 4 4 5 7 7 5 5 4 9 10 11 13 16 24 25 25 26 26 26 26 26 26 27 27 27 27 27 27 27 27 27 26 26 26 26 25 25 25
5 9 10 10 9 5 4 1 4 5 4 3 4 6 6 5 4 4 5 6 7 10 13 18 26 26 25 26 26 26 26 26 26 26 26 26 27 27 27 27 27 27 26 26 26 25 25 25 25
6 8 10 12 10 3 2 1 3 6 4 5 5 6 5 6 4 4 4 4 6 9 11 17 26 25 25 25 26 26 26 26 26 26 26 26 26 26 26 26 27 27 26 26 26 26 26 26 25
7 8 12 9 6 3 2 2 3 3 3 4 5 6 4 4 5 5 3 5 8 8 10 15 25 25 25 25 26 25 25 26 26 26 26 26 26 26 26 26 26 26 26 26 26 26 26 26 26
8 8 10 6 5 4 2 2 3 5 4 5 6 6 3 2 3 3 4 6 7 8 10 13 23 25 25 24 25 25 25 25 25 26 26 27 27 27 26 26 26 26 26 26 26 26 26 26 26
8 9 7 7 6 4 3 3 4 4 4 3 5 6 4 2 2 2 4 5 6 7 9 11 12 15 21 23 24 25 24 25 25 25 26 26 27 27 26 27 27 26 26 25 26 26 26 26 25
7 9 7 4 5 4 4 3 3 3 4 2 4 8 6 4 3 2 3 5 6 7 9 10 10 11 11 11 21 24 23 24 24 25 26 25 25 24 25 25 26 26 26 26 26 27 26 26 25
6 9 4 4 6 6 4 4 3 3 5 4 3 4 6 7 3 1 2 6 8 10 8 9 10 10 11 9 15 16 18 20 20 18 24 20 11 12 14 22 25 26 26 26 26 27 26 25 23
9 7 3 1 5 7 5 5 7 5 5 4 4 5 6 4 2 4 9 10 11 11 9 8 8 9 8 9 7 6 8 9 9 9 11 9 9 10 15 21 24 25 25 25 26 26 23 18 12
9 7 4 4 5 7 6 5 4 8 3 6 8 8 5 4 4 7 7 6 6 6 7 7 7 7 7 7 6 5 5 5 7 8 10 8 7 7 8 7 10 12 16 12 16 15 11 11 11
9 6 4 4 4 5 5 5 4 2 4 7 9 8 6 5 6 6 6 5 5 6 6 6 6 7 7 6 5 4 5 5 5 7 9 7 6 7 8 6 8 8 8 10 10 9 12 12 13
7 4 4 6 10 7 7 5 4 3 5 8 8 7 7 6 6 5 4 4 4 5 7 6 5 7 6 5 5 6 5 5 6 6 7 8 6 7 8 7 7 8 8 9 10 10 12 13 13
5 7 6 5 6 3 6 4 5 3 6 7 7 6 6 5 5 4 4 4 4 5 6 6 4 6 6 5 5 4 5 5 5 6 8 9 7 7 8 7 7 7 8 9 9 11 11 11 11
5 7 5 3 3 3 6 2 4 7 7 7 6 5 5 4 5 4 3 2 3 4 6 7 5 6 6 6 7 6 5 6 6 6 7 8 8 7 7 7 6 7 8 10 9 10 9 10 11
5 5 1 2 3 4 3 4 4 8 9 8 6 5 5 4 4 3 2 2 3 4 5 6 7 7 6 6 6 5 5 6 5 6 6 8 9 9 7 6 6 7 8 8 9 8 10 10 11
3 1 1 2 4 4 4 5 4 8 9 8 7 6 5 4 3 3 2 1 3 4 5 6 6 6 7 7 6 6 5 5 5 5 5 7 9 9 7 6 6 8 7 7 9 9 9 11 12
2 2 2 3 5 6 5 5 4 8 9 9 7 6 5 5 4 3 1 1 3 4 5 5 5 6 6 5 4 4 5 5 5 5 6 8 8 9 8 6 7 7 7 7 8 10 9 9 11
2 2 2 1 4 6 7 6 6 8 7 8 7 7 6 5 4 3 1 1 3 4 5 5 7 7 6 5 6 5 6 6 5 5 7 9 9 10 8 7 7 7 7 8 9 9 10 9 9
2 1 1 1 2 3 3 5 4 6 8 8 10 9 7 5 4 3 2 1 3 4 5 6 7 7 7 5 5 4 6 4 4 5 7 8 9 10 9 9 8 7 7 8 8 9 7 7 7
1 1 2 2 1 2 3 5 3 3 3 4 6 6 6 7 6 4 2 2 3 4 6 7 7 8 7 7 5 6 4 4 4 6 5 7 10 10 9 9 9 8 6 7 8 8 8 9 7
1 1 1 2 1 3 1 7 5 4 3 5 7 6 7 5 5 3 2 1 3 4 5 6 7 7 7 7 7 8 8 8 8 6 7 9 9 10 10 10 9 8 8 8 9 8 7 8 9
2 1 1 2 2 2 0 2 7 2 6 9 9 8 7 6 5 3 1 1 3 4 5 6 6 6 7 7 7 7 6 6 7 8 8 8 7 8 10 11 9 9 8 9 9 9 8 7 8
0 3 4 4 3 3 3 4 9 6 8 6 8 8 7 6 4 3 2 2 3 4 5 5 6 7 7 8 8 7 8 9 11 11 9 8 7 7 9 12 9 9 9 9 10 8 9 8 8
4 4 5 6 4 5 2 3 10 4 5 5 8 9 7 6 5 2 1 2 4 5 5 6 7 8 8 8 8 8 8 7 9 11 10 11 9 9 10 11 10 10 10 11 10 9 9 8 9
2 3 4 3 5 7 2 7 7 1 0 1 5 7 7 6 4 3 1 1 3 5 6 6 7 8 8 8 8 8 7 6 7 9 10 10 9 10 11 11 12 13 12 13 10 9 9 8 8
2 2 2 4 2 5 7 8 6 2 1 2 5 7 7 6 5 3 1 1 3 4 5 6 7 8 8 8 8 7 7 8 9 10 9 8 9 11 13 13 14 13 13 13 11 9 9 8 9
2 6 4 3 2 6 8 7 6 6 8 7 7 8 7 6 5 4 1 1 2 4 5 6 6 7 7 8 7 9 9 9 10 9 10 11 12 12 14 14 14 15 14 13 11 10 9 9 9
2 3 4 3 3 3 6 10 5 6 7 11 11 9 8 7 6 4 2 1 3 4 5 6 6 7 7 7 7 8 9 9 9 9 10 11 11 13 14 15 15 16 15 14 12 11 10 10 9
2 4 6 3 3 4 4 12 1 2 4 7 9 8 7 7 6 4 1 1 3 4 5 6 6 6 7 7 7 8 9 9 9 10 11 11 12 12 14 14 15 16 15 14 12 11 10 9 9
Wind_Direction
33 69 66 56 60 59 57 21 52 84 76 56 50 83 94 74 81 124 196 8 358 359 356 357 13 15 16 17 17 17 16 15 14 13 12 11 10 8 7 6 4 2 0 358 357 356 354 353 351
60 69 53 56 74 75 30 3 50 68 125 127 65 68 71 72 77 85 24 4 1 4 1 2 15 15 16 17 16 16 15 14 14 12 11 10 8 6 5 4 1 360 358 356 355 353 352 351 349
74 59 66 64 73 108 137 52 97 87 91 96 75 55 65 43 48 58 21 1 2 11 7 3 18 16 16 16 16 15 14 14 13 12 11 10 8 5 4 2 359 358 356 354 353 352 350 349 347
71 56 61 66 77 53 103 163 134 123 69 53 82 59 55 9 47 73 33 6 19 19 10 6 18 16 16 16 16 14 14 13 12 11 10 9 7 4 2 1 358 356 354 353 352 350 348 347 345
60 73 70 67 75 73 41 28 102 98 69 56 86 91 73 27 51 68 43 29 34 26 20 13 18 17 15 15 16 13 14 12 12 10 8 8 5 2 1 360 356 355 353 352 351 348 347 345 344
58 61 75 92 110 133 88 42 84 83 96 94 96 98 86 53 61 56 44 40 37 32 27 21 17 17 15 14 15 12 13 12 12 10 8 7 3 0 359 358 354 353 352 351 350 348 345 344 343
82 75 90 117 131 139 135 83 77 101 93 94 114 103 132 133 118 83 53 47 46 38 33 23 16 14 12 12 14 12 12 11 12 10 8 6 3 359 358 356 351 352 351 351 349 347 345 344 342
98 93 88 118 136 138 129 95 79 80 104 47 92 129 161 172 150 103 59 45 46 43 35 24 14 13 6 2 12 11 12 11 12 8 6 5 1 357 356 352 349 351 350 351 347 346 345 344 342
72 73 101 158 158 145 132 106 82 57 84 46 53 117 137 137 143 124 57 40 34 32 30 23 15 11 3 2 12 8 10 8 10 5 4 2 352 346 352 347 350 351 349 350 346 345 345 344 340
54 90 114 51 143 135 118 118 141 105 80 72 63 77 103 116 140 76 50 35 25 16 16 23 11 5 2 5 3 0 3 358 357 356 356 352 347 345 354 345 349 350 348 348 344 344 345 342 334
59 94 105 67 96 111 109 114 126 127 138 174 163 156 144 134 99 71 60 46 24 3 4 9 7 -0 2 2 359 5 354 351 351 353 353 347 342 342 344 338 344 343 345 342 339 339 336 332 329
81 57 88 106 90 92 110 114 107 151 173 156 152 147 145 125 90 80 70 47 18 6 353 355 5 359 359 356 349 3 350 348 350 347 349 348 344 343 341 338 337 340 339 334 333 330 327 327 323
77 92 60 80 82 86 89 93 110 88 103 113 122 126 134 118 103 93 85 58 22 360 345 345 7 1 354 353 349 3 345 347 342 343 348 349 344 341 338 335 336 336 335 333 330 328 325 326 322
94 92 94 75 79 84 106 102 105 149 130 126 135 139 136 127 123 102 74 44 11 352 343 335 10 1 352 354 348 347 343 340 339 342 342 344 341 337 336 332 332 336 335 331 328 320 323 321 319
99 86 76 91 94 112 113 125 191 163 144 146 155 151 138 126 114 107 104 68 10 349 337 337 7 4 355 353 351 350 337 337 336 336 334 335 337 334 333 327 331 334 330 327 326 319 324 320 319
83 86 100 181 125 141 154 248 182 153 151 167 175 170 152 131 120 125 125 74 14 344 332 333 355 357 353 352 343 334 330 328 324 325 325 328 332 331 330 324 328 328 328 328 324 329 328 321 319
51 83 239 191 179 156 190 237 169 163 165 178 188 188 174 154 145 147 134 51 1 333 320 326 337 352 350 343 334 323 320 317 315 316 316 325 328 328 325 316 320 326 327 326 326 332 323 322 320
224 225 252 237 194 166 207 237 180 179 179 187 193 196 194 189 186 174 162 23 339 321 313 321 340 351 345 336 328 318 317 312 312 314 316 325 325 325 322 315 320 323 324 324 324 323 320 318 317
155 187 253 269 164 177 221 239 207 186 185 189 199 204 207 201 178 171 168 342 325 320 329 342 355 349 349 344 340 330 327 319 316 316 322 322 321 322 317 321 318 318 320 319 320 322 320 322 323
149 171 246 290 142 187 250 260 218 186 196 194 195 201 200 186 182 202 203 298 316 321 337 351 353 342 341 334 320 305 308 302 302 308 309 313 319 320 324 323 318 314 315 314 319 320 319 321 332
79 185 235 243 57 68 339 302 188 189 179 186 198 197 191 191 195 205 220 274 314 333 344 348 337 334 332 330 325 325 306 301 314 319 311 318 320 320 316 317 315 312 311 311 312 310 320 319 317
305 239 178 161 104 301 345 301 258 201 198 205 201 194 192 186 180 188 207 297 335 338 340 338 331 330 330 334 337 338 343 333 326 321 318 319 318 317 318 318 314 311 312 307 307 319 308 309 313
247 33 139 158 172 313 286 242 288 166 237 229 210 201 193 183 174 171 159 6 360 346 338 333 331 329 332 336 335 332 326 314 316 319 318 317 316 315 318 318 313 313 310 304 301 302 298 300 298
126 79 68 64 73 303 220 189 277 213 218 222 199 193 186 174 163 144 99 29 352 341 338 338 338 333 333 334 331 327 320 321 325 328 325 326 322 317 315 318 313 310 306 303 301 295 294 294 291
53 60 10 352 351 273 171 221 255 235 214 210 192 186 176 166 158 149 69 355 339 339 343 343 342 334 330 329 325 320 315 317 320 324 326 325 324 322 316 315 312 309 304 302 298 297 294 288 286
30 106 128 271 276 297 289 248 260 162 27 189 165 156 155 160 158 153 132 340 331 341 344 342 336 327 325 325 322 313 315 322 320 319 320 318 317 315 310 313 311 306 302 302 297 294 288 288 285
96 99 141 146 302 288 282 282 297 130 133 131 141 149 168 170 163 159 155 343 341 343 339 333 327 323 321 320 319 318 326 324 320 318 316 315 315 317 319 315 311 307 304 299 295 291 285 283 281
72 143 97 107 314 297 294 283 266 232 228 208 194 187 185 171 163 163 178 319 340 340 329 326 322 316 312 316 323 335 327 321 320 319 320 319 318 318 318 317 315 312 310 306 299 295 288 284 282
132 114 111 116 162 215 292 278 228 224 214 205 202 190 182 175 173 177 197 321 345 337 328 322 318 314 314 319 323 325 321 321 321 321 321 320 319 322 321 320 319 318 314 312 305 299 292 286 284
178 188 156 173 229 196 231 271 297 241 232 199 186 176 171 166 166 170 171 357 341 328 321 318 314 313 314 320 325 324 321 322 324 323 322 324 325 325 324 324 325 324 324 321 315 307 302 293 290